Location: Gorze? G�rny
(49.8500°N, 19.5000°E)
Time: 03:46:21
(UTC+00:00)

Cosmos 1943 Rocket - Pass Details

Date: 13 May 2021
Orbit: 814 x 842 km, 71.0° (Epoch: 23 June)

Event Time Altitude Azimuth Distance (km) Brightness Sun altitude
Exits shadow 21:34:46 24° 213° (SSW) 1,647 3.3 -20.1°
Maximum altitude 21:38:13 82° 298° (WNW) 847 2.2 -20.3°
Drops below altitude 10° 21:43:51 10° 28° (NNE) 2,441 5.3 -20.5°
Sets 21:46:17 0° 29° (NNE) 3,374 6.1 -20.6°
